CST,Max TemperatureF,Mean TemperatureF,Min TemperatureF,Max Dew PointF,MeanDew PointF,Min DewpointF,Max Humidity, Mean Humidity, Min Humidity, Max Sea Level PressureIn, Mean Sea Level PressureIn, Min Sea Level PressureIn, Max VisibilityMiles, Mean VisibilityMiles, Min VisibilityMiles, Max Wind SpeedMPH, Mean Wind SpeedMPH, Max Gust SpeedMPH,PrecipitationIn, CloudCover, Events, WindDirDegrees
2013-1-1,19,2,-14,16,-2,-18,86,77,67,30.29,30.21,30.06,10,9,5,9,1,,0.00,5,Snow,251
2013-1-2,19,14,8,16,10,7,93,82,73,30.08,30.03,29.98,10,5,1,9,4,,0.00,8,Snow,200
2013-1-3,21,12,3,18,9,1,93,79,67,30.25,30.19,30.08,10,7,2,13,5,,0.00,4,Snow,279
2013-1-4,30,18,6,16,12,3,92,74,55,30.15,30.10,30.04,10,10,7,13,4,18,0.00,0,,287
2013-1-5,28,17,6,16,11,3,92,80,59,30.14,29.98,29.87,10,9,7,12,3,,0.00,0,,252
2013-1-6,24,17,10,16,11,7,93,76,50,30.23,30.15,29.99,10,9,5,10,6,,0.00,2,,267
2013-1-7,35,26,17,25,20,12,100,75,60,30.10,29.96,29.91,10,10,7,15,7,21,0.00,0,,218
2013-1-8,37,24,12,30,21,10,100,84,70,29.99,29.90,29.78,10,8,4,16,4,24,0.00,1,,161
2013-1-9,35,28,21,27,22,18,93,71,52,30.36,30.18,29.91,10,10,10,18,10,26,0.00,1,,274
2013-1-10,39,32,24,34,24,19,93,70,45,30.35,30.12,29.76,10,8,1,13,8,17,0.24,3,Rain,126
2013-1-11,44,40,35,43,36,34,100,94,87,29.75,29.54,29.40,10,3,0,12,7,21,0.00,8,Fog-Rain,142
2013-1-12,42,25,8,39,13,0,93,72,58,30.07,29.83,29.40,10,9,5,24,14,37,0.00,7,Snow,272
2013-1-13,10,8,3,3,1,0,85,74,67,30.24,30.11,30.02,10,8,2,13,7,16,0.00,5,Snow,292
2013-1-14,15,8,1,7,3,-2,92,79,62,30.39,30.34,30.24,10,9,2,15,3,16,0.00,3,Snow,276
2013-1-15,32,20,8,18,13,5,92,70,51,30.31,30.15,29.89,10,10,10,16,5,26,0.00,1,,209
2013-1-16,39,28,17,30,19,0,93,70,42,30.20,29.85,29.68,10,8,1,17,10,25,0.00,5,Snow,281
2013-1-17,19,14,8,12,3,-4,86,63,45,30.39,30.34,30.20,10,10,7,14,5,17,0.00,4,,287
2013-1-18,44,30,15,32,24,10,87,75,57,30.30,29.91,29.72,10,10,1,16,7,20,0.00,2,Snow,194
2013-1-19,41,23,5,30,19,-6,93,75,50,30.17,29.83,29.69,10,10,4,29,7,44,0.00,3,Snow,301
2013-1-20,12,6,1,1,-5,-8,79,63,45,30.38,30.29,30.18,10,10,2,15,10,25,0.00,3,Snow,298
2013-1-21,1,-3,-7,-8,-14,-18,71,62,50,30.33,30.28,30.24,10,8,3,15,10,23,0.00,3,,304
2013-1-22,6,-2,-9,-2,-12,-17,71,63,51,30.39,30.32,30.24,10,10,10,8,4,,0.00,2,,292
2013-1-23,19,8,-4,9,-1,-17,85,64,43,30.59,30.26,30.13,10,7,1,24,4,29,0.00,5,Snow,332
2013-1-24,12,4,-5,9,-8,-17,85,60,52,30.67,30.50,30.21,10,10,1,14,5,18,0.00,2,Snow,122
2013-1-25,23,14,6,12,6,0,85,66,49,30.28,30.08,29.94,10,9,2,18,8,25,0.00,5,Snow,278
2013-1-26,24,11,-2,12,3,-6,85,67,54,30.36,30.26,30.15,10,10,10,16,4,20,0.00,2,,132
2013-1-27,33,28,24,30,23,12,93,76,52,30.15,29.96,29.80,10,6,1,13,8,,0.26,7,Snow,129
2013-1-28,33,32,30,34,30,30,100,95,87,29.92,29.82,29.62,4,2,1,13,2,,0.13,8,,124
2013-1-29,35,32,30,34,31,23,100,88,75,29.70,29.60,29.50,10,6,0,14,5,21,0.15,8,Fog-Snow,332
2013-1-30,30,21,12,23,13,5,80,72,67,29.71,29.63,29.58,10,9,2,17,12,26,0.00,8,Snow,335
2013-1-31,12,4,-5,5,-3,-13,73,67,56,30.24,29.97,29.72,10,7,2,18,12,25,0.00,5,Snow,307